Theta_e
335 337 347 348 347 346 347 346 347 347 345 342 341 340 340 340 341 344 344 343 343 342 342 341 341 339 339 338 337 336 336 336 336 336 335 335 336 335 335 336 335 329 334
334 338 346 348 349 348 348 348 346 346 345 342 340 339 338 338 338 339 342 343 342 340 339 340 340 339 339 337 336 335 335 335 335 337 337 336 336 335 334 333 334 330 334
332 340 345 347 349 348 348 348 347 346 346 343 339 338 337 337 337 338 339 341 339 337 338 340 339 338 338 337 335 334 334 335 335 337 336 326 327 334 334 333 334 333 333
333 339 344 345 348 348 348 347 346 346 345 342 338 338 337 336 336 337 337 337 337 335 336 338 340 341 338 336 334 331 331 332 335 335 327 327 327 334 334 333 333 333 332
336 338 343 345 348 348 348 347 347 346 345 343 339 336 337 336 336 336 335 337 337 335 334 337 337 337 336 335 334 331 331 332 333 330 325 325 324 331 333 333 331 332 331
336 340 342 346 348 348 348 346 345 345 345 344 339 336 336 336 335 334 335 335 336 335 334 333 335 334 333 332 330 329 328 330 332 320 324 329 326 333 333 332 331 330 331
337 341 343 344 346 347 347 346 345 345 343 340 339 339 337 336 336 336 336 336 335 336 333 331 334 333 331 330 329 328 327 328 320 319 321 325 327 331 331 331 331 331 330
340 341 343 338 341 343 345 346 345 345 342 340 336 337 335 337 337 336 335 334 332 331 332 333 332 331 330 328 327 326 326 326 321 319 320 324 331 331 330 329 329 329 329
339 339 341 341 340 337 340 341 342 342 339 334 338 338 334 332 337 338 335 334 331 331 331 330 329 329 329 328 327 326 325 325 318 318 320 321 330 329 331 329 328 328 328
335 337 337 339 340 340 338 334 335 336 334 336 335 334 331 329 330 332 331 334 333 333 332 330 329 329 329 328 328 327 324 324 318 316 316 319 326 327 328 330 329 329 329
333 334 335 336 337 337 338 333 330 332 332 331 331 328 326 327 327 325 327 330 331 334 333 332 331 331 330 329 328 326 324 320 317 316 317 325 325 324 327 328 329 330 330
329 332 334 334 334 333 335 332 332 334 331 330 330 328 329 327 327 327 324 326 328 329 329 331 333 330 326 322 322 324 321 320 318 318 319 326 326 326 328 329 329 330 331
330 331 334 334 334 332 331 331 329 331 329 328 328 328 328 327 324 325 323 322 323 322 324 327 327 326 323 322 321 321 320 319 318 319 321 325 326 327 329 330 331 331 331
329 331 332 334 333 332 334 332 331 331 330 328 328 328 326 325 325 323 323 324 322 323 323 323 323 324 323 323 323 322 322 320 319 320 320 322 327 328 331 331 332 332 332
330 332 331 333 332 333 332 333 332 331 332 332 330 331 329 326 325 325 323 323 323 324 323 322 322 322 322 323 323 322 321 321 320 321 320 318 324 330 331 332 332 333 333
331 332 333 334 335 333 332 331 331 331 331 331 331 331 331 329 327 326 325 324 323 324 324 323 322 322 322 323 323 323 322 322 322 322 322 321 322 327 330 331 331 332 333
332 334 333 332 335 333 332 332 331 332 332 330 330 331 330 330 328 327 325 325 325 325 325 324 323 323 323 324 323 324 324 324 324 323 323 324 324 321 326 330 330 331 332
332 333 333 334 333 334 333 334 333 332 330 330 330 331 331 331 330 327 326 326 326 326 325 324 323 323 324 325 324 325 325 325 324 324 325 325 325 325 322 326 329 329 330
333 333 333 333 334 334 334 334 334 334 334 333 332 330 331 331 330 328 327 327 328 327 326 325 325 325 324 322 322 324 323 323 324 326 325 325 325 325 324 324 323 323 325
332 333 332 333 333 333 335 334 334 333 333 334 332 332 332 332 331 329 328 328 329 328 327 327 322 322 321 321 322 322 323 322 323 323 324 326 325 325 324 324 320 316 322
330 331 332 332 333 333 334 332 331 330 332 331 332 333 332 332 331 330 329 329 330 328 327 324 322 321 319 323 321 320 320 323 323 323 324 324 323 324 323 323 322 319 316
328 330 331 333 334 335 335 334 333 333 333 333 333 333 333 332 332 331 330 329 329 329 328 325 323 319 320 322 317 315 310 313 319 321 321 322 322 323 322 323 321 315 310
325 327 330 331 333 334 334 335 333 333 332 330 332 332 334 334 333 333 332 331 330 330 329 328 325 322 318 321 321 315 309 307 313 318 318 320 319 321 321 317 313 308 304
323 327 328 330 331 332 334 332 331 330 328 330 332 333 333 334 334 334 333 331 330 330 328 327 328 325 323 318 319 322 319 316 309 307 317 319 320 318 315 307 301 301 299
313 316 317 320 327 329 330 333 331 330 330 331 331 331 332 334 335 334 334 332 331 330 328 327 327 326 326 323 320 318 318 318 317 311 308 312 312 307 305 300 298 296 295
301 304 307 308 308 310 317 328 329 329 330 328 328 328 331 333 334 333 334 333 332 331 329 328 328 327 326 325 324 322 318 316 315 314 310 311 310 303 300 299 297 295 294
Wind_Speed
12 13 15 16 16 15 15 15 15 15 15 14 13 12 12 13 13 13 12 14 15 15 15 14 15 17 17 17 17 16 16 15 15 17 18 17 18 18 19 18 14 11 16
17 14 13 16 16 15 14 14 14 14 15 13 12 12 11 12 11 12 12 12 14 14 14 14 15 16 16 17 16 14 12 10 8 7 18 13 16 16 17 16 14 13 15
16 14 12 14 15 15 14 14 15 15 14 15 12 12 11 11 11 12 13 11 12 14 15 15 16 14 15 15 15 12 9 9 9 6 6 7 8 16 15 15 15 15 15
16 14 13 12 14 15 14 14 14 14 15 16 12 12 11 12 11 11 12 12 12 13 14 13 14 16 15 14 13 11 8 9 11 12 5 8 9 14 14 14 13 15 14
15 13 12 12 14 15 13 14 14 14 15 16 13 11 11 11 11 11 11 11 12 12 12 12 13 14 13 12 11 8 8 11 11 6 8 7 6 11 13 13 11 12 11
15 14 14 12 14 14 12 12 13 13 13 13 12 11 12 12 10 11 10 9 10 12 11 10 11 11 11 10 9 8 8 10 10 7 6 10 6 10 11 11 10 10 9
13 15 15 14 13 13 13 13 12 12 12 12 11 11 10 10 11 10 10 9 9 11 9 8 8 8 8 8 7 7 8 11 7 5 6 7 5 8 8 8 8 8 8
17 15 13 12 12 13 12 12 11 11 12 11 11 10 11 9 6 12 12 9 8 7 7 6 6 6 6 5 5 5 7 9 7 5 4 5 6 5 6 5 5 6 6
16 14 12 12 11 10 11 11 11 11 12 11 10 12 10 9 8 10 9 9 8 7 6 5 5 4 4 3 2 3 5 9 6 2 2 4 6 3 2 2 2 2 3
12 13 13 11 10 8 6 9 8 7 10 9 10 12 8 10 8 6 5 7 8 10 7 6 4 4 3 3 2 3 5 9 6 2 1 4 6 2 1 2 1 1 1
10 11 12 12 11 10 9 7 7 8 8 10 8 8 9 5 6 7 6 9 8 8 8 7 6 5 5 6 7 7 7 4 5 2 3 6 5 1 3 3 4 4 4
10 11 11 11 10 10 9 8 6 6 5 5 6 6 4 6 6 9 8 9 6 8 7 7 7 6 6 4 4 8 3 5 1 3 3 8 5 4 5 6 6 6 6
10 6 9 11 10 10 8 7 3 4 4 4 7 6 5 4 4 4 4 3 3 5 3 5 5 4 6 5 1 4 3 1 3 3 4 9 7 6 7 8 8 8 8
10 8 8 8 7 8 7 7 5 5 4 4 5 8 5 3 4 4 3 5 5 4 6 5 4 6 6 2 4 4 4 3 3 2 2 9 9 9 10 11 10 10 9
12 10 8 7 7 6 6 6 7 7 6 6 6 7 5 4 4 4 5 4 5 5 5 4 4 3 4 5 5 5 5 5 5 3 3 9 10 11 12 12 12 11 11
8 10 8 7 9 8 5 6 4 5 6 5 6 7 7 5 5 5 4 4 4 4 4 4 4 4 4 4 5 5 6 5 5 5 4 3 10 11 13 13 13 12 12
9 11 12 8 7 8 8 5 4 4 5 5 4 7 9 7 6 6 5 5 5 4 5 4 3 2 1 2 4 5 5 6 5 6 5 4 5 11 12 13 12 12 12
11 10 11 10 8 10 9 7 5 4 4 5 5 5 7 7 7 6 5 5 5 4 4 3 4 4 4 4 3 4 4 5 6 6 5 5 4 4 7 10 10 9 9
14 13 14 12 10 7 10 9 8 8 6 6 5 5 8 8 7 5 5 5 6 4 4 4 4 3 3 4 4 4 4 4 5 5 6 6 6 5 3 4 7 5 2
12 12 11 12 13 12 6 7 7 6 8 6 5 6 8 8 8 6 5 6 6 4 4 4 4 4 4 4 4 4 5 5 5 5 6 5 4 4 4 4 4 4 8
10 12 13 14 14 11 10 8 6 8 7 4 5 7 8 8 10 9 6 6 6 6 6 5 4 5 4 4 1 4 5 7 8 5 5 4 3 4 4 4 5 5 6
9 11 11 13 15 13 9 6 6 7 7 6 5 6 7 8 8 10 9 7 8 6 8 7 6 3 4 5 4 3 3 4 4 5 3 2 2 4 4 4 8 8 6
8 8 7 8 10 11 10 6 4 3 3 4 6 6 9 8 8 9 10 9 9 7 8 9 7 8 4 4 7 4 1 4 1 0 3 3 4 3 5 8 8 8 8
5 7 8 8 8 8 10 7 8 9 8 8 8 8 5 8 10 11 10 11 10 8 9 8 7 7 6 5 2 6 5 3 2 2 1 2 6 6 6 6 7 8 7
4 2 2 1 4 6 7 10 8 8 8 6 4 6 8 7 11 12 12 11 11 8 9 10 8 9 7 6 5 3 5 4 4 3 4 2 4 5 5 4 5 6 6
8 7 5 5 5 6 5 6 8 9 8 5 6 7 7 8 7 11 11 12 11 10 10 10 10 10 8 7 6 6 5 4 5 4 3 4 4 2 4 3 5 4 5
Wind_Direction
131 145 154 149 145 143 137 133 131 125 116 108 102 101 99 97 93 92 89 94 86 80 77 80 83 79 76 74 71 71 75 76 77 85 72 66 64 63 60 57 58 67 53
129 148 150 150 147 145 140 139 134 129 122 117 106 103 105 101 103 100 97 100 92 88 81 79 86 83 79 73 70 69 71 73 78 86 83 63 71 63 63 67 66 58 59
131 140 148 146 146 146 144 138 140 137 128 116 113 110 104 105 102 107 104 95 97 92 86 77 92 89 85 73 69 64 46 22 14 6 83 93 61 67 66 61 50 62 59
134 142 141 143 140 144 145 147 143 140 127 113 118 116 117 112 111 108 111 110 102 93 91 78 76 89 80 73 69 60 30 9 356 355 75 90 74 66 69 68 61 54 59
132 152 135 140 140 144 143 147 148 142 134 130 124 120 120 121 115 114 115 111 107 95 93 84 69 68 75 73 67 51 20 358 345 74 63 69 72 70 67 60 58 58 56
144 132 134 138 135 134 135 141 140 142 128 118 127 130 130 114 106 121 121 114 93 100 92 92 80 78 77 73 65 41 11 351 329 52 80 73 58 70 69 67 64 63 60
147 129 140 141 138 136 134 136 135 130 123 123 138 137 138 129 133 110 114 114 103 97 106 98 86 81 78 73 61 39 5 347 4 56 72 85 50 74 70 67 64 61 57
123 136 141 142 143 145 146 144 142 146 144 145 151 149 141 140 156 136 131 115 128 114 100 107 102 93 86 77 58 28 356 340 343 76 80 102 79 67 73 70 64 60 54
129 139 147 156 153 148 147 150 155 162 142 158 149 150 147 155 125 137 146 142 138 134 130 127 124 121 112 96 65 7 336 326 334 72 338 104 92 64 44 99 62 59 55
135 146 152 154 151 151 150 150 147 161 161 167 162 144 143 167 148 141 157 155 159 152 153 160 164 170 169 181 217 271 292 296 285 273 208 124 100 53 352 314 239 254 315
149 156 158 154 162 163 157 158 148 144 133 135 135 139 146 165 168 167 180 168 177 168 173 179 196 205 218 230 229 238 260 263 244 307 98 127 122 217 279 283 279 279 268
166 163 162 158 167 164 165 144 160 156 156 161 154 164 180 199 176 176 155 152 165 194 197 217 202 214 234 241 221 231 239 251 332 255 144 155 160 223 250 264 268 272 272
167 171 161 163 168 161 153 156 163 158 171 175 173 170 211 214 149 141 140 160 168 198 200 207 213 225 235 241 175 222 240 323 255 256 157 173 182 222 245 253 260 264 266
170 175 170 161 164 160 137 164 163 159 177 175 175 172 190 180 156 172 174 183 189 185 213 199 207 213 224 221 242 264 277 264 269 267 222 187 196 220 244 250 254 259 260
172 174 179 166 164 162 164 168 173 177 181 183 179 181 171 179 181 186 198 180 180 182 195 223 210 222 217 239 250 234 244 250 251 254 254 204 206 220 240 250 252 257 258
170 180 168 181 172 166 186 183 179 168 173 175 170 178 193 179 179 186 196 195 196 192 193 201 210 210 221 222 239 249 249 254 263 260 252 230 219 222 232 247 254 255 257
178 187 186 192 189 177 177 194 192 183 159 180 185 173 184 194 186 181 188 191 197 200 203 204 223 236 259 271 246 255 255 252 252 258 254 240 237 224 224 235 244 254 258
171 206 189 194 210 191 180 193 199 182 189 179 186 182 183 188 199 189 183 189 191 192 184 188 199 214 209 223 242 255 251 230 239 239 241 242 237 237 223 232 233 243 252
181 196 180 183 195 223 200 200 202 209 191 197 189 187 189 191 192 191 189 197 188 187 186 188 223 188 205 239 249 266 273 272 270 263 247 236 227 219 207 208 209 230 244
178 186 170 178 190 212 230 199 200 194 216 208 202 197 191 191 195 191 196 194 195 201 200 190 173 217 204 211 237 255 257 252 248 246 254 256 219 184 176 157 129 87 87
178 182 185 177 184 191 212 198 200 199 210 213 213 208 195 189 190 195 198 195 194 196 193 203 184 199 225 219 193 265 254 243 242 239 240 236 182 156 173 151 121 115 79
178 184 189 185 185 194 200 197 195 207 212 209 210 215 201 196 189 194 196 200 203 192 196 201 184 180 222 186 184 227 298 314 242 221 217 182 167 159 139 112 84 101 98
191 184 192 191 188 194 191 186 171 169 212 227 237 211 212 193 194 197 196 200 211 195 200 210 195 191 201 209 206 176 260 234 1 283 197 180 172 154 102 92 88 84 76
195 186 190 198 201 195 191 193 188 195 206 221 219 230 214 202 202 200 202 197 207 209 213 208 201 195 197 213 210 227 242 202 183 303 319 179 70 68 94 100 87 80 83
60 194 99 46 227 217 199 198 205 199 213 219 204 197 217 223 213 209 207 203 205 205 204 204 205 197 203 208 210 174 222 241 220 179 222 161 68 50 49 54 91 91 90
40 29 11 355 322 317 307 234 205 215 216 208 221 214 211 209 208 214 213 209 209 207 207 206 212 215 204 207 218 214 183 178 203 183 193 216 149 109 77 67 111 116 111